Regional Weather Roundup
Issued by NWS Charleston, WV

Home | Current Version | Previous Version | Graphics & Text | Print | Product List | Glossary On
Versions: 1 2 3 4 5 6 7 8 9 10 11 12 13 14 15 16 17 18 19 20 21 22 23 24 25 26 27 28 29 30 31 32 33 34 35 36 37 38 39 40 41 42 43 44 45 46 47 48 49 50
124
ASUS41 KRLX 050110
RWRRLX
West Virginia Regional Weather Roundup
National Weather Service Charleston WV
800 PM EST SUN DEC 04 2016

Note: "fair" indicates few or no clouds below 12,000 feet with no
significant weather and/or obstructions to visibility.

WVZ003-050200-
Northern Panhandle of West Virginia

CITY           SKY/WX    TMP DP  RH WIND       PRES   REMARKS
WHEELING       LGT RAIN  38  30  73 E5        29.92F
$$

WVZ009-050200-
Northwest West Virginia

CITY           SKY/WX    TMP DP  RH WIND       PRES   REMARKS
PARKERSBURG    LGT RAIN  40  34  79 E3        29.94F
$$

WVZ006-050200-
Western West Virginia

CITY           SKY/WX    TMP DP  RH WIND       PRES   REMARKS
HUNTINGTON     LGT RAIN  42  40  92 CALM      29.90F FOG
$$

WVZ015-050200-
West Central West Virginia

CITY           SKY/WX    TMP DP  RH WIND       PRES   REMARKS
CHARLESTON     LGT RAIN  46  40  79 S3        29.91S
$$

WVZ022-031-050200-
North Central West Virginia

CITY           SKY/WX    TMP DP  RH WIND       PRES   REMARKS
CLARKSBURG     LGT RAIN  43  34  70 VRB7      29.92F
MORGANTOWN     CLOUDY    43  29  57 SE9       29.93F
$$

WVZ025-035-042-045-050200-
Southern West Virginia

CITY           SKY/WX    TMP DP  RH WIND       PRES   REMARKS
BECKLEY        CLOUDY    37  35  92 SE12G18   29.95F FOG
LOGAN          NOT AVBL
BLUEFIELD      CLOUDY    38  35  89 SE6       29.96F
LEWISBURG      DRIZZLE   33  33  97 CALM      30.02F
$$

WVZ047-050200-
Northern Mountains of West Virginia

CITY           SKY/WX    TMP DP  RH WIND       PRES   REMARKS
ELKINS         CLOUDY    41  34  76 SE8       29.95F
$$

WVZ052-050200-
Eastern Panhandle of West Virginia

CITY           SKY/WX    TMP DP  RH WIND       PRES   REMARKS
MARTINSBURG    CLOUDY    39  28  64 S3        30.12F
PETERSBURG     RAIN      39  36  89 CALM      30.07S
$$




USA.gov is the U.S. government's official web portal to all federal, state and local government web resources and services.